Total_Precipitation_Accumulation
1.69 1.69 1.65 1.61 1.57 1.57 1.60 1.55 1.40 1.27 1.15 1.05 0.97 0.96 0.95 0.89 0.87 0.95 0.97 1.03 1.16 1.19 1.13 1.16 1.21 1.31 1.44 1.48 1.61 1.75 1.96 2.16 2.15 1.78 1.50 1.40 1.48 1.57 1.65 1.62 1.56 1.51 1.43
1.49 1.50 1.52 1.37 1.29 1.30 1.30 1.28 1.18 1.14 1.10 1.05 1.00 0.98 0.90 0.83 0.84 0.85 0.85 0.86 0.95 1.00 1.02 1.07 1.02 1.09 1.24 1.33 1.46 1.55 1.70 1.86 1.99 1.89 1.63 1.53 1.51 1.57 1.69 1.71 1.52 1.40 1.32
1.18 1.29 1.36 1.24 1.15 1.16 1.14 1.10 1.09 1.08 1.06 1.01 0.98 0.91 0.84 0.82 0.83 0.83 0.80 0.80 0.80 0.82 0.90 0.98 1.03 1.15 1.24 1.33 1.44 1.47 1.56 1.63 1.83 1.83 1.63 1.61 1.62 1.62 1.78 1.72 1.47 1.46 1.18
1.04 1.05 1.12 1.13 1.10 1.06 1.06 1.02 0.96 0.92 0.91 0.86 0.81 0.79 0.78 0.75 0.70 0.69 0.69 0.72 0.76 0.78 0.81 0.86 0.94 1.09 1.21 1.37 1.42 1.48 1.60 1.71 1.81 1.87 1.78 1.76 1.76 1.78 1.86 1.89 1.71 1.52 1.28
1.06 1.05 1.04 1.03 0.98 0.97 1.00 0.98 0.86 0.82 0.75 0.71 0.70 0.68 0.68 0.66 0.61 0.62 0.66 0.69 0.79 0.85 0.87 0.86 0.84 0.93 1.09 1.20 1.25 1.44 1.70 1.84 1.85 1.90 1.87 1.86 1.83 1.92 1.86 1.78 1.76 1.62 1.37
1.09 1.11 1.08 1.06 1.00 0.95 0.95 0.95 0.87 0.84 0.79 0.70 0.71 0.69 0.63 0.53 0.55 0.57 0.60 0.68 0.78 0.85 0.93 0.91 0.81 0.80 0.85 0.91 0.99 1.12 1.38 1.62 1.79 1.87 1.85 1.83 1.80 1.85 1.85 1.77 1.79 1.80 1.63
1.07 1.04 1.08 1.09 1.01 0.92 0.87 0.95 0.92 0.90 0.81 0.75 0.74 0.71 0.65 0.54 0.51 0.50 0.52 0.60 0.75 0.85 0.94 0.95 0.80 0.70 0.82 0.93 0.94 0.96 1.06 1.25 1.54 1.78 1.83 1.70 1.79 1.88 1.95 1.94 1.84 1.84 1.76
1.02 0.97 0.97 0.99 1.00 0.93 0.90 0.90 0.90 0.91 0.90 0.81 0.74 0.74 0.74 0.54 0.50 0.49 0.51 0.62 0.75 0.80 0.82 0.87 0.92 0.93 0.85 0.88 0.93 1.07 1.25 1.35 1.42 1.44 1.61 1.65 1.68 1.71 1.72 1.76 1.80 1.81 1.67
0.92 0.92 0.86 0.83 0.82 0.81 0.79 0.81 0.89 0.91 0.90 0.79 0.73 0.78 0.76 0.59 0.50 0.48 0.51 0.62 0.72 0.74 0.68 0.67 0.72 0.77 0.75 0.82 0.97 1.22 1.44 1.62 1.49 1.45 1.50 1.65 1.64 1.49 1.38 1.54 1.82 1.92 1.72
0.79 0.73 0.71 0.73 0.73 0.75 0.77 0.80 0.79 0.84 0.85 0.73 0.66 0.68 0.63 0.53 0.46 0.44 0.50 0.57 0.68 0.70 0.73 0.71 0.74 0.72 0.73 0.88 1.07 1.38 1.60 1.72 1.57 1.49 1.59 1.72 1.64 1.54 1.49 1.58 1.80 1.83 1.71
0.61 0.57 0.61 0.61 0.61 0.61 0.70 0.74 0.72 0.71 0.76 0.73 0.66 0.61 0.55 0.45 0.40 0.43 0.45 0.47 0.56 0.66 0.70 0.77 0.82 0.82 0.78 0.88 1.09 1.34 1.56 1.64 1.59 1.55 1.58 1.62 1.66 1.67 1.56 1.55 1.61 1.62 1.65
0.53 0.52 0.53 0.51 0.44 0.46 0.62 0.65 0.64 0.71 0.69 0.68 0.71 0.67 0.54 0.45 0.36 0.31 0.34 0.38 0.45 0.65 0.77 0.79 0.82 0.84 0.83 0.95 1.09 1.35 1.60 1.75 1.64 1.52 1.44 1.42 1.41 1.45 1.43 1.32 1.29 1.29 1.34
0.55 0.57 0.52 0.45 0.44 0.43 0.49 0.53 0.54 0.62 0.60 0.56 0.59 0.58 0.50 0.42 0.32 0.22 0.22 0.27 0.38 0.52 0.68 0.83 0.83 0.78 0.92 1.19 1.38 1.52 1.70 1.82 1.71 1.49 1.40 1.30 1.24 1.20 1.17 1.20 1.18 1.14 1.07
0.56 0.57 0.53 0.50 0.47 0.40 0.38 0.36 0.37 0.40 0.43 0.49 0.50 0.48 0.45 0.40 0.29 0.23 0.25 0.27 0.35 0.44 0.57 0.76 0.91 0.98 1.13 1.40 1.63 1.77 1.84 1.79 1.59 1.40 1.28 1.22 1.15 1.12 1.13 1.11 1.14 1.14 1.16
0.53 0.49 0.46 0.43 0.42 0.39 0.31 0.26 0.25 0.26 0.28 0.34 0.38 0.39 0.40 0.33 0.24 0.25 0.27 0.29 0.33 0.41 0.51 0.72 0.93 1.06 1.26 1.47 1.60 1.62 1.59 1.53 1.46 1.31 1.19 1.14 1.12 1.11 1.11 1.09 1.12 1.08 1.10
0.47 0.46 0.40 0.37 0.35 0.31 0.29 0.27 0.21 0.20 0.21 0.22 0.24 0.25 0.27 0.26 0.23 0.22 0.24 0.29 0.37 0.45 0.55 0.79 0.99 1.11 1.28 1.39 1.49 1.47 1.38 1.31 1.27 1.22 1.18 1.11 1.07 1.07 1.10 1.06 1.02 1.02 1.07
0.37 0.39 0.36 0.30 0.28 0.29 0.30 0.35 0.33 0.25 0.21 0.20 0.20 0.21 0.23 0.23 0.22 0.23 0.24 0.30 0.36 0.44 0.59 0.81 1.01 1.15 1.26 1.31 1.34 1.32 1.26 1.20 1.12 1.08 1.07 1.03 0.99 0.98 0.99 0.95 0.91 0.91 0.93
0.31 0.29 0.27 0.26 0.27 0.28 0.24 0.23 0.28 0.34 0.34 0.29 0.22 0.21 0.21 0.21 0.24 0.26 0.29 0.34 0.45 0.51 0.67 0.84 0.98 1.05 1.12 1.19 1.20 1.19 1.16 1.09 1.03 1.02 1.06 1.03 0.94 0.88 0.84 0.83 0.84 0.80 0.77
0.26 0.25 0.22 0.21 0.23 0.21 0.18 0.15 0.18 0.23 0.29 0.31 0.27 0.23 0.22 0.22 0.26 0.31 0.35 0.43 0.55 0.62 0.72 0.82 0.87 0.92 0.97 1.03 1.05 1.03 1.01 0.98 0.93 0.91 0.92 0.93 0.90 0.82 0.75 0.69 0.68 0.62 0.61
0.23 0.23 0.22 0.19 0.18 0.17 0.15 0.14 0.15 0.17 0.22 0.25 0.27 0.25 0.24 0.33 0.40 0.39 0.37 0.41 0.50 0.60 0.67 0.74 0.75 0.75 0.78 0.83 0.81 0.76 0.77 0.79 0.78 0.80 0.79 0.78 0.80 0.75 0.68 0.62 0.57 0.57 0.59
0.20 0.19 0.19 0.18 0.16 0.14 0.15 0.16 0.15 0.16 0.20 0.23 0.22 0.20 0.28 0.36 0.45 0.42 0.41 0.44 0.49 0.55 0.57 0.61 0.64 0.65 0.62 0.61 0.64 0.64 0.66 0.71 0.73 0.74 0.72 0.71 0.69 0.64 0.57 0.53 0.51 0.50 0.49
0.21 0.20 0.17 0.16 0.15 0.14 0.14 0.14 0.14 0.14 0.16 0.19 0.18 0.17 0.27 0.33 0.42 0.44 0.45 0.49 0.52 0.56 0.56 0.55 0.53 0.55 0.58 0.59 0.60 0.63 0.66 0.67 0.68 0.70 0.69 0.65 0.63 0.59 0.54 0.48 0.47 0.48 0.48
0.23 0.22 0.20 0.19 0.17 0.15 0.14 0.13 0.13 0.13 0.13 0.14 0.17 0.19 0.24 0.34 0.42 0.48 0.52 0.55 0.55 0.54 0.49 0.49 0.52 0.54 0.53 0.51 0.51 0.55 0.57 0.57 0.62 0.68 0.69 0.62 0.56 0.51 0.48 0.46 0.46 0.48 0.47
0.20 0.18 0.17 0.18 0.20 0.18 0.16 0.15 0.15 0.14 0.14 0.16 0.19 0.20 0.24 0.31 0.38 0.47 0.56 0.60 0.63 0.62 0.55 0.51 0.51 0.51 0.48 0.46 0.48 0.49 0.48 0.49 0.50 0.54 0.55 0.50 0.45 0.42 0.41 0.42 0.40 0.41 0.42
0.19 0.19 0.17 0.19 0.19 0.16 0.14 0.15 0.16 0.18 0.18 0.19 0.20 0.22 0.24 0.26 0.33 0.40 0.48 0.54 0.60 0.64 0.64 0.63 0.60 0.54 0.48 0.42 0.41 0.41 0.48 0.49 0.44 0.43 0.47 0.44 0.37 0.36 0.38 0.38 0.37 0.37 0.37
0.19 0.19 0.18 0.19 0.19 0.17 0.15 0.14 0.13 0.13 0.15 0.18 0.20 0.20 0.20 0.23 0.29 0.33 0.36 0.40 0.46 0.54 0.59 0.65 0.66 0.57 0.46 0.40 0.39 0.41 0.39 0.32 0.28 0.30 0.40 0.41 0.36 0.34 0.32 0.33 0.32 0.33 0.34